This is the latest recevied weather packets stored in our database for station/object K7FLA. If no packets are shown the sender has not sent any weather packets the latest 10 day(s).
| Time | Temp. | Humidity | Pressure | Rain* | Wind** | Luminosity | Snow |
|---|---|---|---|---|---|---|---|
| 1778014052 | 17.78° C | 52% | 1094.7 hPa | 0 mm | - | 1096 W/m² | - |
| 1778013750 | 17.78° C | 52% | 1094.6 hPa | 0 mm | - | 288 W/m² | - |
| 1778013447 | 17.78° C | 49% | 1094.5 hPa | 0 mm | - | 238 W/m² | - |
| 1778013144 | 17.78° C | 47% | 1094.5 hPa | 0 mm | - | 462 W/m² | - |
| 1778012839 | 17.22° C | 54% | 1094.7 hPa | 0 mm | - | 1110 W/m² | - |
| 1778012536 | 16.67° C | 51% | 1094.7 hPa | 0 mm | - | 322 W/m² | - |
| 1778012232 | 17.22° C | 49% | 1094.6 hPa | 0 mm | - | 187 W/m² | - |
| 1778011930 | 17.22° C | 52% | 1094.6 hPa | 0 mm | - | 165 W/m² | - |
| 1778011628 | 17.78° C | 51% | 1094.7 hPa | 0 mm | - | 238 W/m² | - |
| 1778011325 | 17.78° C | 51% | 1094.9 hPa | 0 mm | - | 709 W/m² | - |
| 1778011021 | 16.67° C | 55% | 1094.9 hPa | 0 mm | - | 640 W/m² | - |
| 1778010718 | 16.11° C | 56% | 1094.7 hPa | 0 mm | - | 786 W/m² | - |
| 1778010415 | 16.11° C | 57% | 1095 hPa | 0 mm | - | 291 W/m² | - |
| 1778010111 | 16.11° C | 55% | 1095 hPa | 0 mm | - | 124 W/m² | - |
| 1778009808 | 16.67° C | 55% | 1095 hPa | 0 mm | - | 125 W/m² | - |
| 1778009505 | 16.67° C | 55% | 1094.9 hPa | 0 mm | - | 151 W/m² | - |
| 1778009204 | 16.67° C | 56% | 1095 hPa | 0 mm | - | 242 W/m² | - |
| 1778008901 | 16.67° C | 52% | 1095 hPa | 0 mm | - | 366 W/m² | - |
| 1778008599 | 16.11° C | 54% | 1095 hPa | 0 mm | - | 380 W/m² | - |
| 1778008297 | 16.11° C | 54% | 1095 hPa | 0 mm | - | 602 W/m² | - |
| 1778007993 | 16.11° C | 58% | 1095.1 hPa | 0 mm | - | 325 W/m² | - |
| 1778007687 | 15.56° C | 58% | 1095.1 hPa | 0 mm | - | 220 W/m² | - |
| 1778007385 | 16.11° C | 56% | 1095 hPa | 0 mm | - | 197 W/m² | - |
| 1778007081 | 16.11° C | 55% | 1095 hPa | 0 mm | - | 237 W/m² | - |
| 1778006777 | 16.67° C | 56% | 1095.1 hPa | 0 mm | - | 287 W/m² | - |
* Rain latest hour (hover to see other rain measurements)
** Current wind speed in m/s (hover to see current wind gust speed)